Location: Zagreb
(45.8000°N, 16.0000°E)
Time: 18:30:06
(UTC+02:00)

Tiros 1 despin weight - Pass Details

Date: 12 August 2022
Orbit: 591 x 638 km, 48.2° (Epoch: 06 October)

Event Time Altitude Azimuth Distance (km) Brightness Sun altitude
Rises 14:56:52 0° 266° (W) 2,844 ? 50.7°
Reaches altitude 10° 14:59:11 10° 269° (W) 1,935 ? 50.4°
Maximum altitude 15:03:35 67° 352° (N) 647 ? 49.8°
Drops below altitude 10° 15:07:58 10° 76° (ENE) 1,921 ? 49.2°
Sets 15:10:16 0° 79° (E) 2,821 ? 48.9°
